"Pseudo-MPEC" for P1182Um

Created 2020 Oct 21 0:07:32 UT using Find_Orb

Click here for an explanation of pseudo-MPECs

 
 Astrometry: 
     P1182Um  C2020 10 15.p.E@3Akt1aF`5n0=R.7@mr$(5cZkNh6g\I.'w@hDZXlkOESE6slF51
     P1182Um  C2020 10 15.xtD;TiCv_ZcA]rH[lkYL#KqRpKx-xjoP?mkM7iJvI3r`_tu+eT2F51
     P1182Um  C2020 10 15h)uP.M7-=-]6T)dkr4BAstrometryu!:[;4WFTe2vkpqv$D3e@IRF51
     P1182Um KC2020 10 16.36805303 31 42.93 +24 02 05.5    ~AG9b 22.30GVNEOCPV06
     P1182Um KC2020 10 16.37374603 31 42.48 +24 02 02.7    ~AG9b 21.97GVNEOCPV06
     P1182Um KC2020 10 16.37944103 31 42.01 +24 02 00.0    ~AG9b 22.46GVNEOCPV06
     P1182Um KC2020 10 16.38513703 31 41.56 +24 01 57.0    ~AG9b 22.07GVNEOCPV06
     P1182Um  C2020 10 17uR@J*redacted;bE`Z!kk!EW4A^9xbclick7heref(-,Q`[]VVa;F51
     P1182Um  C2020 10 17`!u@ffW1Ck,y)yRl7tD$%^:for;p#V4cWc]3OIj:F6G?F,e7J96(F51
     P1182Um  C2020 10 17tBZil7y[T0D8CN;hh$ipwjc[q.ul+/5wG5X!E#mC+c1M%iqOfaQOF51
     P1182Um  C2020 10 19vWRn?M:J\OH]d9d],-hoN-3#sN.IJ?Ur_\2/rbWV8IjuUw%;4-!eF52
     P1182Um  C2020 10 19POsyS9.LxD^-p?'WOq,+oJ0d8qg9\=BVpvIXH!`bra'yh8N9E3.IF52
     P1182Um  C2020 10 19wsbo:UQ1xa'td9veo\NAw/@?HIYG6gJ4:f].Bh?@P:n964.LP$KJF52
     P1182Um  C2020 10 19CMMNdDyR8e5G-#fM-gAVZ1jC8,MWw__%3C:fORRdy9Afg)-b_AtOF52
     P1182Um  C2020 10 20d257(liA+H]?kw_@P7^)QYIrV4!R.*t?.VfwxqE5jj3Pd=AHFL[pF51
     P1182Um  C2020 10 20xx3SXu^OJW]ZCZXoYn9#[Cgx?5xEJHDH)1;`:jdqMEoa#tKWw,UdF51
     P1182Um  C2020 10 20^tS7?$9=B((^iB(SnVRcq0'l[8CBmbA;q;s1XSa\k*%t7s*j6U=GF51
     P1182Um ^C2020 10 20.52066903 26 05.790+23 25 48.34   ~AKGM 22.19GVNEOCP568
     P1182Um ^C2020 10 20.52161503 26 05.705+23 25 47.84   ~AKGM 22.30GVNEOCP568
     P1182Um ^C2020 10 20.52256303 26 05.621+23 25 47.32   ~AKGM 22.18GVNEOCP568
     P1182Um  C2020 10 205/EWW-8x/mv@LPexplanationNg2sK7mbdQ,-,q.v[SS8:Ej=U8mF51
     P1182Um  C2020 10 20OdC#+/QV!xreP%@]ekEaSorm:cdo!WE?T$d-4e,,*\1$swJr8PK-F51
     P1182Um  C2020 10 20I?Hf)qA;:osr3,R2l7H$;uU?nmJ?UM^#mBt4]k(,@x`reR/30%/eF51

Station data:
(568) Mauna Kea  (N19.826116 W155.472200)  US/Hawaii.
(F51) Pan-STARRS 1, Haleakala  (N20.707235 W156.255910)  US/Hawaii.
   Observers N. Primak, A. Schultz, S. Watters, J. Thiel, T. Goggia. Measurer
   PS1 Science Consortium. 1.8-m Ritchey-Chrétien + CCD.
(F52) Pan-STARRS 2, Haleakala  (N20.707384 W156.255910)  US/Hawaii. 1.8-m
   Ritchey-Chrétien + CCD.
(V06) Catalina Sky Survey-Kuiper  (N32.416847 W110.732550)  US/Arizona.
   Observers T. A. Pruyne, B. M. Africano, E. J. Christensen, G. A. Farneth,
   D. C. Fuls, A. R. Gibbs, A. D. Grauer, H. Gröller, J. A. Johnson, R. A.
   Kowalski, S. M. Larson, G. J. Leonard, D. Rankin, R. L. Seaman, F. C.
   Shelly. 1.55-m reflector + CCD.

Orbital elements:  P1182Um
   Perihelion 2020 May 31.147842 +/- 3.26 TT =  3:32:53 (JD 2459000.647842)
Epoch 2020 Oct 20.0 TT = JDT 2459142.5   Earth MOID: 0.1318   Ma: 0.0839
M  46.02469525 +/- 1.7              (J2000 ecliptic)          AutoNEOCP
n   0.32445537 +/- 0.00528          Peri.   57.58573 +/- 1.0
a   2.09748758 +/- 0.0227           Node   242.08875 +/- 0.39
e   0.4672918 +/- 0.00489           Incl.    5.69640 +/- 0.17
P   3.04                   H 20.8   G  0.15   U  9.2  
q 1.11734867 +/- 0.00214    Q 3.07762649 +/- 0.0444
From 23 observations 2020 Oct. 15-20; mean residual 0".14
Residuals in arcseconds: 
201015 F51  .01-  .02-    201017 F51  .14-  .44-    201020 F51  .01-  .09+    
201015 F51  .08+  .11+    201017 F51  .11+  .22-    201020 568  .04-  .07+    
201015 F51  .01-  .21+    201019 F52  .07-  .27-    201020 568  .05-  .09+    
201016 V06  .23-  .01+    201019 F52  .12+  .08+    201020 568  .04-  .10+    
201016 V06  .04-  .03+    201019 F52  .25+  .01+    201020 F51  .02-  .10+    
201016 V06  .13-  .16+    201019 F52  .17+  .02+    201020 F51  .00   .03+    
201016 V06  .06+  .01-    201020 F51  .21-  .19-    201020 F51  .15-  .08+    
201017 F51  .24+  .02+    201020 F51  .06+  .05-    

Ephemerides (geocentric):
Date (UTC) HH   RA              Dec         delta   r     elong  mag " sig PA
---- -- -- --  -------------   -----------  ------ ------ -----  --- ---- ---
2020 10 21 00  03 25 25.237   +23 21 21.95  .84787 1.7910 152.5 22.5 .071  43
2020 10 21 01  03 25 21.687   +23 20 58.73  .84793 1.7913 152.6 22.5 .078  44
2020 10 21 02  03 25 18.134   +23 20 35.48  .84799 1.7915 152.6 22.5 .085  44
2020 10 21 03  03 25 14.578   +23 20 12.21  .84805 1.7918 152.7 22.5 .092  45
2020 10 21 04  03 25 11.021   +23 19 48.92  .84811 1.7920 152.8 22.5 .100  45
2020 10 21 05  03 25 07.461   +23 19 25.62  .84817 1.7923 152.8 22.5 .107  45
2020 10 21 06  03 25 03.898   +23 19 02.29  .84823 1.7926 152.9 22.5 .115  46
2020 10 21 07  03 25 00.334   +23 18 38.94  .84829 1.7928 152.9 22.5 .123  46
2020 10 21 08  03 24 56.767   +23 18 15.57  .84835 1.7931 153.0 22.5 .132  46
2020 10 21 09  03 24 53.198   +23 17 52.18  .84841 1.7933 153.0 22.5 .140  46
2020 10 21 10  03 24 49.627   +23 17 28.77  .84848 1.7936 153.1 22.5 .149  47
2020 10 21 11  03 24 46.053   +23 17 05.34  .84854 1.7938 153.1 22.5 .158  47
2020 10 21 12  03 24 42.477   +23 16 41.89  .84860 1.7941 153.2 22.5 .167  47
2020 10 21 13  03 24 38.899   +23 16 18.41  .84867 1.7944 153.3 22.5 .176  47
2020 10 21 14  03 24 35.319   +23 15 54.92  .84873 1.7946 153.3 22.5 .186  48
2020 10 21 15  03 24 31.737   +23 15 31.41  .84879 1.7949 153.4 22.5 .196  48
2020 10 21 16  03 24 28.152   +23 15 07.88  .84886 1.7951 153.4 22.5 .206  48
2020 10 21 17  03 24 24.565   +23 14 44.33  .84892 1.7954 153.5 22.5 .216  48
2020 10 21 18  03 24 20.976   +23 14 20.76  .84899 1.7956 153.5 22.5 .226  48
2020 10 21 19  03 24 17.385   +23 13 57.17  .84905 1.7959 153.6 22.5 .237  49
2020 10 21 20  03 24 13.792   +23 13 33.55  .84912 1.7962 153.7 22.5 .248  49
2020 10 21 21  03 24 10.196   +23 13 09.92  .84919 1.7964 153.7 22.5 .259  49
2020 10 21 22  03 24 06.599   +23 12 46.27  .84925 1.7967 153.8 22.5 .271  49
2020 10 21 23  03 24 02.999   +23 12 22.60  .84932 1.7969 153.8 22.5 .282  49
2020 10 22 00  03 23 59.397   +23 11 58.91  .84939 1.7972 153.9 22.5 .294  49
2020 10 22 01  03 23 55.794   +23 11 35.20  .84946 1.7974 153.9 22.5 .306  50
2020 10 22 02  03 23 52.188   +23 11 11.47  .84953 1.7977 154.0 22.5 .318  50
2020 10 22 03  03 23 48.580   +23 10 47.72  .84959 1.7980 154.0 22.5 .331  50
2020 10 22 04  03 23 44.969   +23 10 23.95  .84966 1.7982 154.1 22.5 .344  50
2020 10 22 05  03 23 41.357   +23 10 00.16  .84973 1.7985 154.2 22.5 .357  50
2020 10 22 06  03 23 37.743   +23 09 36.36  .84980 1.7987 154.2 22.5 .370  50
2020 10 22 07  03 23 34.127   +23 09 12.53  .84987 1.7990 154.3 22.5 .384  50
2020 10 22 08  03 23 30.509   +23 08 48.68  .84994 1.7992 154.3 22.5 .398  51
2020 10 22 09  03 23 26.889   +23 08 24.82  .85001 1.7995 154.4 22.5 .412  51
2020 10 22 10  03 23 23.266   +23 08 00.93  .85009 1.7998 154.4 22.5 .426  51
2020 10 22 11  03 23 19.642   +23 07 37.02  .85016 1.8000 154.5 22.5 .441  51
2020 10 22 12  03 23 16.016   +23 07 13.10  .85023 1.8003 154.6 22.5 .455  51
2020 10 22 13  03 23 12.388   +23 06 49.16  .85030 1.8005 154.6 22.5 .470  51
2020 10 22 14  03 23 08.758   +23 06 25.19  .85037 1.8008 154.7 22.5 .486  51
2020 10 22 15  03 23 05.126   +23 06 01.21  .85045 1.8010 154.7 22.5 .501  51
2020 10 22 16  03 23 01.492   +23 05 37.21  .85052 1.8013 154.8 22.5 .517  51
2020 10 22 17  03 22 57.856   +23 05 13.19  .85059 1.8016 154.8 22.5 .533  52
2020 10 22 18  03 22 54.218   +23 04 49.15  .85067 1.8018 154.9 22.5 .550  52
2020 10 22 19  03 22 50.578   +23 04 25.10  .85074 1.8021 154.9 22.5 .567  52
2020 10 22 20  03 22 46.937   +23 04 01.02  .85082 1.8023 155.0 22.5 .584  52
2020 10 22 21  03 22 43.293   +23 03 36.92  .85089 1.8026 155.1 22.5 .601  52
2020 10 22 22  03 22 39.648   +23 03 12.81  .85097 1.8028 155.1 22.5 .618  52
2020 10 22 23  03 22 36.001   +23 02 48.68  .85105 1.8031 155.2 22.5 .636  52